M I D A S
Marine Information and Data Acquisition System
Tripno 662 of the Zeeleeuw from 2004-03-08 09:01:07 to 2004-03-08 14:46:37
Back to CruiseResearch ActivitiesStationsMapUnderway DataData graphs

EquipmentUnitsComments
TimeDGPSUTC
LatitudeDGPSDM.mWGS84
LongitudeDGPSDM.mWGS84
SpeedMeteo Stationm/sRelative wind speed
DirectionMeteo StationdegRelative wind direction
TemperatureMeteo Stationdeg CelciusAir temperature
PressureMeteo StationPaAtmospheric pressure
HumidityMeteo Station%Relative humidity
Missing or incorrect values are displayed as -999
Metereological data collected by the RV Zeeleeuw from 2004-03-08 09:01:07 to 2004-03-08 14:46:37
                                                                                    Next 1000 lines
Time Latitude Longitude Speed Direction Temperature Pressure Humidity
2004-03-08 09:01:15 51°13.858 2°55.611 3.8 51 4 103290 66
2004-03-08 09:01:20 51°13.867 2°55.605 4.8 51 4 103290 66
2004-03-08 09:01:25 51°13.876 2°55.598 4.5 42 4 103290 66
2004-03-08 09:01:29 51°13.883 2°55.593 4.7 50 4 103290 66
2004-03-08 09:01:35 51°13.894 2°55.585 4.9   4 103290 66
2004-03-08 09:01:39 51°13.901 2°55.58 5 53 4 103290 66
2004-03-08 09:01:45 51°13.912 2°55.571 5.5 64 4 103290 66
2004-03-08 09:01:49 51°13.92 2°55.566 4.6 56 4 103290 66
2004-03-08 09:01:55 51°13.931 2°55.558 4.9 62 4 103290 66
2004-03-08 09:02:00 51°13.94 2°55.551 4.6 55 4 103280 67
2004-03-08 09:02:05 51°13.949 2°55.544 4.9 64 4 103280 67
2004-03-08 09:02:10 51°13.957 2°55.538 4.1 58 3.9 103290 67
2004-03-08 09:02:15 51°13.966 2°55.531 4.9 81 3.9 103290 67
2004-03-08 09:02:20 51°13.975 2°55.524 5.2 78 3.9 103290 66
2004-03-08 09:02:25 51°13.984 2°55.518 4.9 75 3.9 103290 66
2004-03-08 09:02:29 51°13.991 2°55.512 4.5 61 3.9 103290 67
2004-03-08 09:02:35 51°14.002 2°55.504 5.4 43 3.9 103290 67
2004-03-08 09:02:40 51°14.01 2°55.498 5.8 45 3.8 103290 66
2004-03-08 09:02:45 51°14.019 2°55.491 5.4 50 3.8 103290 66
2004-03-08 09:02:49 51°14.026 2°55.486 8.3 30 3.8 103290 66
2004-03-08 09:02:55 51°14.037 2°55.478 7.6 37 3.8 103290 66
2004-03-08 09:02:59 51°14.044 2°55.473 7.4 43 3.8 103290 67
2004-03-08 09:03:05 51°14.054 2°55.465 6.7 38 3.8 103290 67
2004-03-08 09:03:09 51°14.062 2°55.46 6.2 37 3.8 103290 67
2004-03-08 09:03:15 51°14.073 2°55.452 6.4 37 3.8 103290 67
2004-03-08 09:03:20 51°14.082 2°55.445 7.7 44 3.8 103280 67
2004-03-08 09:03:25 51°14.092 2°55.438 8.3 44 3.8 103280 67
2004-03-08 09:03:29 51°14.1 2°55.432 8.4 52 3.8 103280 67
2004-03-08 09:03:35 51°14.112 2°55.423 7.6 56 3.8 103280 67
2004-03-08 09:03:40 51°14.122 2°55.415 8.3 36 3.8 103280 67
2004-03-08 09:03:45 51°14.132 2°55.408 7.6 45 3.8 103280 67
2004-03-08 09:03:50 51°14.142 2°55.4 7.6 57 3.8 103280 67
2004-03-08 09:03:56 51°14.155 2°55.389 6.5 48 3.8 103280 67
2004-03-08 09:04:00 51°14.163 2°55.382 7.7 56 3.7 103280 67
2004-03-08 09:04:05 51°14.173 2°55.373 5.7 40 3.7 103280 67
2004-03-08 09:04:09 51°14.181 2°55.365 7.5 59 3.7 103270 67
2004-03-08 09:04:15 51°14.193 2°55.353 7.1 58 3.7 103270 67
2004-03-08 09:04:20 51°14.202 2°55.342 6.7 52 3.7 103290 67
2004-03-08 09:04:25 51°14.212 2°55.33 6.2 73 3.7 103290 67
2004-03-08 09:04:31 51°14.223 2°55.316 6.8 62 3.7 103290 68
2004-03-08 09:04:35 51°14.23 2°55.305 6.8 59 3.7 103290 68
2004-03-08 09:04:39 51°14.238 2°55.295 6.5 57 3.7 103290 68
2004-03-08 09:04:45 51°14.249 2°55.277 6.3 73 3.7 103290 68
2004-03-08 09:04:49 51°14.256 2°55.264 5.7 61 3.6 103290 69
2004-03-08 09:04:56 51°14.27 2°55.24 6.4 58 3.6 103290 69
2004-03-08 09:05:00 51°14.277 2°55.226 5.5 52 3.6 103290 69
2004-03-08 09:05:06 51°14.289 2°55.204 6.4 53 3.6 103290 69
2004-03-08 09:05:09 51°14.295 2°55.193 7 52 3.6 103280 69
2004-03-08 09:05:15 51°14.308 2°55.171 5.7 50 3.6 103280 69
2004-03-08 09:05:20 51°14.318 2°55.152 5.6 50 3.5 103290 69
2004-03-08 09:05:25 51°14.328 2°55.132 5.9 43 3.5 103290 69
2004-03-08 09:05:30 51°14.339 2°55.112 6.1 38 3.5 103280 69
2004-03-08 09:05:35 51°14.349 2°55.092 5.5 45 3.5 103280 69
2004-03-08 09:05:40 51°14.358 2°55.071 5.9 57 3.5 103290 70
2004-03-08 09:05:45 51°14.368 2°55.05 6.8 71 3.5 103290 70
2004-03-08 09:05:49 51°14.375 2°55.032 6.9 75 3.5 103280 70
2004-03-08 09:05:55 51°14.384 2°55.005 6.1 79 3.5 103280 70
2004-03-08 09:05:59 51°14.389 2°54.986 5.1 73 3.5 103280 70
2004-03-08 09:06:05 51°14.396 2°54.955 5 79 3.5 103280 70
2004-03-08 09:06:10 51°14.4 2°54.93 5.3 81 3.4 103290 70
2004-03-08 09:06:15 51°14.405 2°54.904 4.8 79 3.4 103290 70
2004-03-08 09:06:20 51°14.409 2°54.877 4 79 3.4 103290 70
2004-03-08 09:06:25 51°14.412 2°54.851 4.9 84 3.4 103290 70
2004-03-08 09:06:30 51°14.416 2°54.824 4.3 86 3.4 103290 70
2004-03-08 09:06:35 51°14.418 2°54.797 3.9   3.4 103290 70
2004-03-08 09:06:39 51°14.419 2°54.775 3.5 85 3.4 103290 70
2004-03-08 09:06:45 51°14.421 2°54.741 3.3 85 3.4 103290 70
2004-03-08 09:06:49 51°14.42 2°54.72 2.9 90 3.3 103290 70
2004-03-08 09:06:55 51°14.419 2°54.688 2.8 90 3.3 103290 70
2004-03-08 09:07:00 51°14.417 2°54.662 2.6 109 3.3 103300 70
2004-03-08 09:07:05 51°14.414 2°54.638 2.2 121 3.3 103300 70
2004-03-08 09:07:09 51°14.411 2°54.619 1.9 146 3.3 103300 71
2004-03-08 09:07:15 51°14.406 2°54.592 1.9 129 3.3 103300 71
2004-03-08 09:07:20 51°14.402 2°54.571 1.7 152 3.3 103310 70
2004-03-08 09:07:25 51°14.397 2°54.55 1.7 104 3.3 103310 70
2004-03-08 09:07:29 51°14.393 2°54.534 1.9 149 3.3 103300 70
2004-03-08 09:07:35 51°14.387 2°54.51 1.6 154 3.3 103300 70
2004-03-08 09:07:39 51°14.382 2°54.495 1.5 167 3.3 103300 71
2004-03-08 09:07:45 51°14.375 2°54.472 1.3 176 3.3 103300 71
2004-03-08 09:07:49 51°14.37 2°54.458 1 183 3.4 103300 71
2004-03-08 09:07:55 51°14.363 2°54.436 1.3 181 3.4 103300 71
2004-03-08 09:07:59 51°14.358 2°54.423 0.9 191 3.4 103300 71
2004-03-08 09:08:05 51°14.35 2°54.402 0.8 220 3.4 103300 71
2004-03-08 09:08:09 51°14.345 2°54.388 1.6 240 3.4 103300 71
2004-03-08 09:08:15 51°14.337 2°54.368 1.5 244 3.4 103300 71
2004-03-08 09:08:20 51°14.33 2°54.351 2 243 3.4 103300 72
2004-03-08 09:08:25 51°14.322 2°54.333 1.6 222 3.4 103300 72
2004-03-08 09:08:29 51°14.316 2°54.318 1.1 266 3.5 103300 72
2004-03-08 09:08:35 51°14.305 2°54.294 1.2 298 3.5 103300 72
2004-03-08 09:08:40 51°14.297 2°54.272 0.9 331 3.5 103300 72
2004-03-08 09:08:45 51°14.287 2°54.249 1.1 338 3.5 103300 72
2004-03-08 09:08:49 51°14.28 2°54.23 1.5 343 3.6 103300 72
2004-03-08 09:08:55 51°14.269 2°54.2 1.8 324 3.6 103300 72
2004-03-08 09:08:59 51°14.261 2°54.179 1.8 331 3.6 103300 72
2004-03-08 09:09:05 51°14.25 2°54.148 2 319 3.6 103300 72
2004-03-08 09:09:09 51°14.243 2°54.126 1.9 317 3.6 103300 72
2004-03-08 09:09:15 51°14.232 2°54.094 1.8 359 3.6 103300 72
2004-03-08 09:09:20 51°14.224 2°54.066 1.9 340 3.6 103310 72
2004-03-08 09:09:25 51°14.214 2°54.038 1.7 353 3.6 103310 72
2004-03-08 09:09:29 51°14.208 2°54.016 1.6 336 3.7 103300 72
2004-03-08 09:09:35 51°14.196 2°53.983 2.1 353 3.7 103300 72
2004-03-08 09:09:39 51°14.189 2°53.961 1.5 29 3.7 103310 72
2004-03-08 09:09:45 51°14.177 2°53.928 1.1 23 3.7 103310 72
2004-03-08 09:09:50 51°14.167 2°53.9 1.5 10 3.7 103300 72
2004-03-08 09:09:55 51°14.157 2°53.873 1.5 10 3.7 103300 72
2004-03-08 09:09:59 51°14.149 2°53.852 1.6 347 3.8 103310 72
2004-03-08 09:10:05 51°14.136 2°53.819 1.6 5 3.8 103310 72
2004-03-08 09:10:10 51°14.126 2°53.792 1.4 357 3.8 103310 72
2004-03-08 09:10:15 51°14.116 2°53.764 2.2 38 3.8 103310 72
2004-03-08 09:10:20 51°14.108 2°53.735 2 24 3.8 103310 72
2004-03-08 09:10:25 51°14.099 2°53.706 2.5 39 3.8 103310 72
2004-03-08 09:10:29 51°14.094 2°53.682 2 44 3.8 103310 72
2004-03-08 09:10:35 51°14.086 2°53.646 2.8 40 3.8 103310 72
2004-03-08 09:10:40 51°14.079 2°53.615 3 33 3.8 103310 72
2004-03-08 09:10:45 51°14.074 2°53.585 3.1 55 3.8 103310 72
2004-03-08 09:10:50 51°14.068 2°53.554 2.6 67 3.9 103310 72
2004-03-08 09:10:55 51°14.062 2°53.523 2.6 56 3.9 103310 72
2004-03-08 09:11:00 51°14.056 2°53.493 3 59 3.9 103300 72
2004-03-08 09:11:05 51°14.05 2°53.462 2.5 70 3.9 103300 72
2004-03-08 09:11:09 51°14.043 2°53.438 2 71 3.8 103310 71
2004-03-08 09:11:15 51°14.034 2°53.402 1.5 64 3.8 103310 71
2004-03-08 09:11:19 51°14.027 2°53.377 1.3 68 3.8 103300 70
2004-03-08 09:11:25 51°14.017 2°53.342 1.5 68 3.8 103300 70
2004-03-08 09:11:29 51°14.01 2°53.318 1.1 47 3.8 103300 70
2004-03-08 09:11:35 51°13.999 2°53.283 1.2 53 3.8 103300 70
2004-03-08 09:11:40 51°13.989 2°53.253 1.5 26 3.8 103300 70
2004-03-08 09:11:45 51°13.98 2°53.224 1.9 47 3.8 103300 70
2004-03-08 09:11:49 51°13.973 2°53.2 0.9 65 3.7 103300 70
2004-03-08 09:11:55 51°13.962 2°53.164 1.6 54 3.7 103300 70
2004-03-08 09:11:59 51°13.955 2°53.139 1.9 55 3.7 103310 71
2004-03-08 09:12:05 51°13.946 2°53.103 2.2 42 3.7 103310 71
2004-03-08 09:12:10 51°13.939 2°53.071 2.4 53 3.7 103300 71
2004-03-08 09:12:15 51°13.931 2°53.04 2.7 68 3.7 103300 71
2004-03-08 09:12:19 51°13.926 2°53.015 1.9 66 3.7 103300 70
2004-03-08 09:12:25 51°13.916 2°52.978 2.6 65 3.7 103300 70
2004-03-08 09:12:29 51°13.911 2°52.952 1.5 44 3.7 103310 70
2004-03-08 09:12:35 51°13.901 2°52.915 3.4 66 3.7 103310 70
2004-03-08 09:12:40 51°13.892 2°52.884 2.3 60 3.7 103300 70
2004-03-08 09:12:45 51°13.884 2°52.853 2.8 51 3.7 103300 70
2004-03-08 09:12:50 51°13.874 2°52.823 2.8 62 3.7 103300 70
2004-03-08 09:12:55 51°13.867 2°52.792 2.1 51 3.7 103300 70
2004-03-08 09:13:00 51°13.857 2°52.762 2.5 68 3.6 103300 70
2004-03-08 09:13:05 51°13.848 2°52.731 1.9 63 3.6 103300 70
2004-03-08 09:13:09 51°13.841 2°52.707 1.8 68 3.6 103300 71
2004-03-08 09:13:15 51°13.83 2°52.67 2 74 3.6 103300 71
2004-03-08 09:13:19 51°13.823 2°52.646 1.7 51 3.6 103300 71
2004-03-08 09:13:25 51°13.812 2°52.608 1.7 66 3.6 103300 71
2004-03-08 09:13:29 51°13.804 2°52.584 1.8 64 3.6 103300 71
2004-03-08 09:13:35 51°13.794 2°52.547 1.5 62 3.6 103300 71
2004-03-08 09:13:40 51°13.785 2°52.517 2.3 48 3.6 103300 70
2004-03-08 09:13:45 51°13.776 2°52.485 2.3 32 3.6 103300 70
2004-03-08 09:13:50 51°13.768 2°52.455 2.5 61 3.6 103300 70
2004-03-08 09:13:55 51°13.758 2°52.424 2 22 3.6 103300 70
2004-03-08 09:13:59 51°13.751 2°52.399 2.4 59 3.5 103300 70
2004-03-08 09:14:05 51°13.74 2°52.363 2 51 3.5 103300 70
2004-03-08 09:14:09 51°13.734 2°52.338 2.2 58 3.6 103300 70
2004-03-08 09:14:15 51°13.722 2°52.301 1.4 37 3.6 103300 70
2004-03-08 09:14:19 51°13.716 2°52.275 1.8 44 3.6 103300 70
2004-03-08 09:14:25 51°13.705 2°52.239 1.5 30 3.6 103300 70
2004-03-08 09:14:30 51°13.697 2°52.207 2.5 66 3.5 103310 70
2004-03-08 09:14:35 51°13.688 2°52.176 1.7 45 3.5 103310 70
2004-03-08 09:14:40 51°13.681 2°52.144 2.3 39 3.5 103310 70
2004-03-08 09:14:45 51°13.671 2°52.114 2.4 49 3.5 103310 70
2004-03-08 09:14:49 51°13.665 2°52.088 1.6 48 3.5 103300 70
2004-03-08 09:14:55 51°13.654 2°52.051 2.2 64 3.5 103300 70
2004-03-08 09:14:59 51°13.647 2°52.026 1.8 63 3.5 103300 70
2004-03-08 09:15:05 51°13.636 2°51.988 1.8 53 3.5 103300 70
2004-03-08 09:15:09 51°13.628 2°51.964 1.7 61 3.5 103300 70
2004-03-08 09:15:15 51°13.616 2°51.928 1.3 52 3.5 103300 70
2004-03-08 09:15:19 51°13.608 2°51.904 1.9 58 3.5 103300 70
2004-03-08 09:15:25 51°13.596 2°51.868 1.2 42 3.5 103300 70
2004-03-08 09:15:29 51°13.588 2°51.843 2 42 3.5 103300 70
2004-03-08 09:15:35 51°13.576 2°51.807 2 36 3.5 103300 70
2004-03-08 09:15:40 51°13.566 2°51.777 2.8 39 3.5 103300 70
2004-03-08 09:15:45 51°13.558 2°51.745 2.1 63 3.5 103300 70
2004-03-08 09:15:49 51°13.55 2°51.721 2.5 61 3.5 103300 70
2004-03-08 09:15:55 51°13.539 2°51.684 2 41 3.5 103300 70
2004-03-08 09:15:59 51°13.532 2°51.658 3 49 3.5 103300 71
2004-03-08 09:16:05 51°13.521 2°51.621 2.1 52 3.5 103300 71
2004-03-08 09:16:10 51°13.513 2°51.589 2 75 3.5 103300 71
2004-03-08 09:16:15 51°13.504 2°51.559 1.4 64 3.5 103300 71
2004-03-08 09:16:20 51°13.495 2°51.528 1.8 77 3.5 103300 71
2004-03-08 09:16:25 51°13.484 2°51.498 1.1 57 3.5 103300 71
2004-03-08 09:16:29 51°13.477 2°51.473 2.1 48 3.5 103300 71
2004-03-08 09:16:35 51°13.466 2°51.436 1.8 16 3.5 103300 71
2004-03-08 09:16:40 51°13.456 2°51.406 2.4 41 3.5 103310 71
2004-03-08 09:16:45 51°13.446 2°51.375 1.7 40 3.5 103310 71
2004-03-08 09:16:49 51°13.439 2°51.35 1.7 49 3.5 103310 71
2004-03-08 09:16:55 51°13.428 2°51.314 1.8 68 3.5 103310 71
2004-03-08 09:17:00 51°13.419 2°51.283 1.7 84 3.5 103300 71
2004-03-08 09:17:05 51°13.41 2°51.252 1.4 83 3.5 103300 71
2004-03-08 09:17:10 51°13.401 2°51.221 1.6 70 3.5 103300 71
2004-03-08 09:17:15 51°13.393 2°51.19 1.5 73 3.5 103300 71
2004-03-08 09:17:20 51°13.383 2°51.159 1.6 68 3.5 103310 71
2004-03-08 09:17:25 51°13.375 2°51.128 1.8 65 3.5 103310 71
2004-03-08 09:17:29 51°13.367 2°51.104 1.3 78 3.5 103300 71
2004-03-08 09:17:35 51°13.355 2°51.068 0.9 66 3.5 103300 71
2004-03-08 09:17:39 51°13.347 2°51.044 1.4 51 3.5 103300 70
2004-03-08 09:17:45 51°13.336 2°51.007 0.8 44 3.5 103300 70
2004-03-08 09:17:49 51°13.329 2°50.983 1.3 63 3.4 103300 70
2004-03-08 09:17:55 51°13.318 2°50.947 1 63 3.4 103300 70
2004-03-08 09:18:00 51°13.308 2°50.917 1.2 58 3.5 103310 70
2004-03-08 09:18:05 51°13.3 2°50.886 1.2 57 3.5 103310 70
2004-03-08 09:18:09 51°13.292 2°50.862 1.2 80 3.5 103300 71
2004-03-08 09:18:15 51°13.281 2°50.826 0.8 16 3.5 103300 71
2004-03-08 09:18:19 51°13.274 2°50.802 0.8 34 3.4 103300 70
2004-03-08 09:18:25 51°13.263 2°50.766 1.1 33 3.4 103300 70
2004-03-08 09:18:30 51°13.254 2°50.735 2.1 38 3.5 103300 70
2004-03-08 09:18:35 51°13.245 2°50.705 2.4 28 3.5 103300 70
2004-03-08 09:18:39 51°13.237 2°50.682 2.4 34 3.5 103300 70
2004-03-08 09:18:45 51°13.226 2°50.645 2.2 12 3.5 103300 70
2004-03-08 09:18:50 51°13.216 2°50.615 2.5 37 3.5 103310 71
2004-03-08 09:18:55 51°13.207 2°50.585 2.6 359 3.5 103310 71
2004-03-08 09:19:00 51°13.198 2°50.555 2 12 3.5 103300 71
2004-03-08 09:19:05 51°13.188 2°50.526 2.2 17 3.5 103300 71
2004-03-08 09:19:09 51°13.182 2°50.501 1.2 34 3.5 103300 71
2004-03-08 09:19:15 51°13.17 2°50.466 1.5 23 3.5 103300 71
2004-03-08 09:19:20 51°13.161 2°50.436 1.5 35 3.5 103300 71
2004-03-08 09:19:25 51°13.152 2°50.406 1.9 44 3.5 103300 71
2004-03-08 09:19:30 51°13.143 2°50.375 1.4 39 3.5 103300 71
2004-03-08 09:19:35 51°13.134 2°50.345 1.9 70 3.5 103300 71
2004-03-08 09:19:39 51°13.127 2°50.321 1.5 38 3.6 103310 71
2004-03-08 09:19:45 51°13.117 2°50.285 2.2 63 3.6 103310 71
2004-03-08 09:19:50 51°13.107 2°50.255 1.3 41 3.6 103300 71
2004-03-08 09:19:55 51°13.1 2°50.224 2.1 63 3.6 103300 71
2004-03-08 09:20:00 51°13.09 2°50.194 2.3 64 3.6 103310 71
2004-03-08 09:20:05 51°13.082 2°50.163 2 30 3.6 103310 71
2004-03-08 09:20:09 51°13.074 2°50.14 2.5 29 3.6 103300 71
2004-03-08 09:20:15 51°13.064 2°50.104 2 8 3.6 103300 71
2004-03-08 09:20:19 51°13.056 2°50.08 1.4 62 3.6 103300 71
2004-03-08 09:20:25 51°13.045 2°50.045 1.1 75 3.6 103300 71
2004-03-08 09:20:30 51°13.035 2°50.016 1.6 59 3.6 103300 71
2004-03-08 09:20:35 51°13.026 2°49.986 1 63 3.6 103300 71
2004-03-08 09:20:40 51°13.017 2°49.956 1.2 84 3.6 103300 72
2004-03-08 09:20:45 51°13.008 2°49.927 1.4 89 3.6 103300 72
2004-03-08 09:20:49 51°13.002 2°49.903 1.2 87 3.6 103310 71
2004-03-08 09:20:55 51°12.99 2°49.867 1.3 87 3.6 103310 71
2004-03-08 09:21:00 51°12.982 2°49.837 1.3 86 3.6 103310 71
2004-03-08 09:21:05 51°12.973 2°49.807 1.6 102 3.6 103310 71
2004-03-08 09:21:09 51°12.966 2°49.784 1.3 101 3.6 103310 71
2004-03-08 09:21:15 51°12.955 2°49.748 0.9 101 3.6 103310 71
2004-03-08 09:21:20 51°12.946 2°49.719 0.9 100 3.6 103310 71
2004-03-08 09:21:25 51°12.937 2°49.689 0.7 101 3.6 103310 71
2004-03-08 09:21:29 51°12.929 2°49.666 0.6 100 3.6 103310 71
2004-03-08 09:21:35 51°12.918 2°49.631 0.9   3.6 103310 71
2004-03-08 09:21:39 51°12.91 2°49.607 1.1 93 3.6 103310 70
2004-03-08 09:21:45 51°12.899 2°49.572 0.7 95 3.6 103310 70
2004-03-08 09:21:50 51°12.889 2°49.543 0.7 80 3.6 103310 70
2004-03-08 09:21:55 51°12.88 2°49.514 0.8 79 3.6 103310 70
2004-03-08 09:22:00 51°12.87 2°49.484 0.7 78 3.6 103310 70
2004-03-08 09:22:05 51°12.861 2°49.455 0.7 71 3.6 103310 70
2004-03-08 09:22:09 51°12.853 2°49.431 0.8 55 3.6 103310 70
2004-03-08 09:22:15 51°12.841 2°49.396 0.8 44 3.6 103310 70
2004-03-08 09:22:19 51°12.834 2°49.373 0.8 43 3.6 103310 70
2004-03-08 09:22:25 51°12.822 2°49.338 0.7 50 3.6 103310 70
2004-03-08 09:22:29 51°12.815 2°49.314 0.7 59 3.6 103310 70
2004-03-08 09:22:35 51°12.803 2°49.278 0.6 80 3.6 103310 70
2004-03-08 09:22:39 51°12.795 2°49.256 0.4 78 3.6 103310 70
2004-03-08 09:22:45 51°12.784 2°49.22 0.6 74 3.6 103310 70
2004-03-08 09:22:49 51°12.776 2°49.196 0.5 75 3.6 103310 70
2004-03-08 09:22:55 51°12.764 2°49.162 0.4 75 3.6 103310 70
2004-03-08 09:22:59 51°12.756 2°49.138 0.7 12 3.6 103310 70
2004-03-08 09:23:05 51°12.744 2°49.104 0.5 23 3.6 103310 70
2004-03-08 09:23:09 51°12.735 2°49.08 0.5 347 3.6 103300 70
2004-03-08 09:23:15 51°12.724 2°49.045 0.8 53 3.6 103300 70
2004-03-08 09:23:20 51°12.713 2°49.017 0.6 40 3.6 103310 70
2004-03-08 09:23:25 51°12.704 2°48.987 0.9 68 3.6 103310 70
2004-03-08 09:23:29 51°12.695 2°48.965 0.9 45 3.7 103310 70
2004-03-08 09:23:35 51°12.684 2°48.929 0.9 25 3.7 103310 70
2004-03-08 09:23:40 51°12.673 2°48.901 0.8 49 3.7 103310 70
2004-03-08 09:23:45 51°12.664 2°48.872 0.7 16 3.7 103310 70
2004-03-08 09:23:49 51°12.655 2°48.849 1.2 61 3.7 103310 70
2004-03-08 09:23:55 51°12.643 2°48.815 1 19 3.7 103310 70
2004-03-08 09:24:00 51°12.633 2°48.786 1 30 3.7 103310 70
2004-03-08 09:24:05 51°12.623 2°48.757 1.3 53 3.7 103310 70
2004-03-08 09:24:10 51°12.613 2°48.727 0.6 56 3.7 103310 70
2004-03-08 09:24:15 51°12.603 2°48.699 0.5 39 3.7 103310 70
2004-03-08 09:24:19 51°12.595 2°48.675 0.6 359 3.7 103310 70
2004-03-08 09:24:25 51°12.583 2°48.64 0.5 16 3.7 103310 70
2004-03-08 09:24:29 51°12.574 2°48.617 0.5 341 3.7 103310 70
2004-03-08 09:24:35 51°12.562 2°48.582 0.7 20 3.7 103310 70
2004-03-08 09:24:39 51°12.554 2°48.559 0.8 36 3.7 103310 71
2004-03-08 09:24:45 51°12.542 2°48.524 0.7 27 3.7 103310 71
2004-03-08 09:24:50 51°12.532 2°48.494 0.6 44 3.7 103320 70
2004-03-08 09:24:55 51°12.522 2°48.465 0.3 45 3.7 103320 70
2004-03-08 09:25:00 51°12.512 2°48.436 0.2 46 3.7 103310 70
2004-03-08 09:25:05 51°12.502 2°48.406 0.5 59 3.7 103310 70
2004-03-08 09:25:09 51°12.493 2°48.383 0.3 69 3.7 103310 70
2004-03-08 09:25:15 51°12.482 2°48.347 0.4 75 3.7 103310 70
2004-03-08 09:25:20 51°12.472 2°48.318 1.1 71 3.8 103310 70
2004-03-08 09:25:25 51°12.462 2°48.289 0.8 22 3.8 103310 70
2004-03-08 09:25:29 51°12.453 2°48.265 0.7 32 3.8 103310 70
2004-03-08 09:25:35 51°12.441 2°48.23 0.6 4 3.8 103310 70
2004-03-08 09:25:39 51°12.433 2°48.206 0.5 51 3.8 103320 70
2004-03-08 09:25:45 51°12.42 2°48.171 0.3 55 3.8 103320 70
2004-03-08 09:25:49 51°12.413 2°48.147 0.6 98 3.8 103320 70
2004-03-08 09:25:55 51°12.4 2°48.112 0.5 84 3.8 103320 70
2004-03-08 09:26:00 51°12.39 2°48.082 0.6 37 3.8 103310 70
2004-03-08 09:26:05 51°12.38 2°48.053 0.7 39 3.8 103310 70
2004-03-08 09:26:09 51°12.372 2°48.029 0.5 38 3.8 103320 69
2004-03-08 09:26:15 51°12.36 2°47.993 1.1 55 3.8 103320 69
2004-03-08 09:26:20 51°12.349 2°47.964 0.9 55 3.8 103310 69
2004-03-08 09:26:25 51°12.34 2°47.934 1 56 3.8 103310 69
2004-03-08 09:26:29 51°12.332 2°47.911 1.8 52 3.8 103320 69
2004-03-08 09:26:35 51°12.32 2°47.875 1.2 43 3.8 103320 69
2004-03-08 09:26:39 51°12.311 2°47.851 1.6 57 3.8 103310 69
2004-03-08 09:26:45 51°12.3 2°47.816 0.9 57 3.8 103310 69
2004-03-08 09:26:49 51°12.291 2°47.792 1.3 49 3.8 103310 69
2004-03-08 09:26:55 51°12.28 2°47.756 1 45 3.8 103310 69
2004-03-08 09:27:00 51°12.27 2°47.726 1 59 3.8 103320 69
2004-03-08 09:27:05 51°12.26 2°47.696 0.9 75 3.8 103320 69
2004-03-08 09:27:10 51°12.25 2°47.666 0.7 76 3.8 103320 69
2004-03-08 09:27:15 51°12.24 2°47.636 0.8 77 3.8 103320 69
2004-03-08 09:27:19 51°12.231 2°47.613 0.6 66 3.8 103310 69
2004-03-08 09:27:25 51°12.22 2°47.576 0.7 39 3.8 103310 69
2004-03-08 09:27:29 51°12.212 2°47.552 0.7 42 3.8 103320 69
2004-03-08 09:27:35 51°12.2 2°47.516 0.8 42 3.8 103320 69
2004-03-08 09:27:40 51°12.19 2°47.486 0.8 49 3.8 103310 69
2004-03-08 09:27:45 51°12.181 2°47.455 0.7 61 3.8 103310 69
2004-03-08 09:27:50 51°12.17 2°47.426 0.3 70 3.8 103310 69
2004-03-08 09:27:55 51°12.161 2°47.395 0.7 56 3.8 103310 69
2004-03-08 09:28:00 51°12.15 2°47.365 1.2 35 3.8 103320 69
2004-03-08 09:28:05 51°12.141 2°47.334 1.2 2 3.8 103320 69
2004-03-08 09:28:09 51°12.133 2°47.31 1.3 355 3.8 103310 69
2004-03-08 09:28:15 51°12.121 2°47.273 1.2 12 3.8 103310 69
2004-03-08 09:28:19 51°12.113 2°47.249 1.4 24 3.8 103310 69
2004-03-08 09:28:25 51°12.101 2°47.213 1.5 13 3.8 103310 69
2004-03-08 09:28:30 51°12.091 2°47.182 1.3 6 3.8 103310 69
2004-03-08 09:28:35 51°12.08 2°47.153 1.3 26 3.8 103310 69
2004-03-08 09:28:40 51°12.07 2°47.122 1.3 1 3.8 103320 69
2004-03-08 09:28:45 51°12.06 2°47.091 1.2 2 3.8 103320 69
2004-03-08 09:28:49 51°12.053 2°47.067 1.3 1 3.8 103310 69
2004-03-08 09:28:55 51°12.04 2°47.031 1.1 16 3.8 103310 69
2004-03-08 09:29:00 51°12.03 2°47.001 1.7 356 3.8 103320 69
2004-03-08 09:29:05 51°12.019 2°46.971 1.4 12 3.8 103320 69
2004-03-08 09:29:09 51°12.012 2°46.946 1.1 356 3.8 103320 69
2004-03-08 09:29:15 51°11.999 2°46.911 0.7 350 3.8 103320 69
2004-03-08 09:29:20 51°11.988 2°46.881 1.4 7 3.8 103320 69
2004-03-08 09:29:25 51°11.978 2°46.851 1.2 5 3.8 103320 69
2004-03-08 09:29:29 51°11.969 2°46.827 1.1 13 3.8 103320 69
2004-03-08 09:29:35 51°11.957 2°46.79 1.1 359 3.8 103320 69
2004-03-08 09:29:40 51°11.947 2°46.76 1.2   3.8 103320 69
2004-03-08 09:29:45 51°11.938 2°46.728 1.4 348 3.8 103320 69
2004-03-08 09:29:49 51°11.93 2°46.704 1 20 3.8 103320 69
2004-03-08 09:29:55 51°11.918 2°46.666 0.9 10 3.8 103320 69
2004-03-08 09:30:00 51°11.909 2°46.636 1 10 3.8 103320 69
2004-03-08 09:30:05 51°11.898 2°46.605 1.2 357 3.8 103320 69
2004-03-08 09:30:09 51°11.891 2°46.58 1.2 23 3.8 103320 69
2004-03-08 09:30:15 51°11.879 2°46.543 1 22 3.8 103320 69
2004-03-08 09:30:20 51°11.869 2°46.513 1 3 3.9 103320 70
2004-03-08 09:30:25 51°11.859 2°46.482 1.3 37 3.9 103320 70
2004-03-08 09:30:30 51°11.849 2°46.451 0.9 4 3.9 103320 70
2004-03-08 09:30:35 51°11.839 2°46.421 1.1 21 3.9 103320 70
2004-03-08 09:30:40 51°11.828 2°46.39 1.3 24 3.9 103320 69
2004-03-08 09:30:45 51°11.819 2°46.359 1.2 9 3.9 103320 69
2004-03-08 09:30:49 51°11.81 2°46.334 1.2 26 3.9 103320 69
2004-03-08 09:30:55 51°11.798 2°46.297 1.1 352 3.9 103320 69
2004-03-08 09:31:00 51°11.788 2°46.266 1.1 6 3.9 103320 69
2004-03-08 09:31:05 51°11.778 2°46.235 1.2 358 3.9 103320 69
2004-03-08 09:31:10 51°11.767 2°46.205 1.3 11 3.9 103320 69
2004-03-08 09:31:15 51°11.758 2°46.172 1.3 17 3.9 103320 69
2004-03-08 09:31:20 51°11.748 2°46.143 1 3 3.9 103320 69
2004-03-08 09:31:25 51°11.738 2°46.112 1 10 3.9 103320 69
2004-03-08 09:31:29 51°11.729 2°46.087 1.3 29 3.9 103320 69
2004-03-08 09:31:35 51°11.717 2°46.05 1.2 358 3.9 103320 69
2004-03-08 09:31:39 51°11.709 2°46.026 1.2 8 3.9 103320 69
2004-03-08 09:31:45 51°11.696 2°45.99 1.6 346 3.9 103320 69
2004-03-08 09:31:50 51°11.686 2°45.959 1.4 360 3.9 103320 69
2004-03-08 09:31:55 51°11.676 2°45.928 1.5 351 3.9 103320 69
2004-03-08 09:31:59 51°11.667 2°45.904 1.3 23 3.9 103310 69
2004-03-08 09:32:05 51°11.655 2°45.868 1.6 352 3.9 103310 69
2004-03-08 09:32:09 51°11.647 2°45.842 1.3 355 3.9 103320 69
2004-03-08 09:32:15 51°11.636 2°45.805 1.1 360 3.9 103320 69
2004-03-08 09:32:20 51°11.625 2°45.775 1.2 16 3.9 103320 69
2004-03-08 09:32:25 51°11.616 2°45.744 1.3 357 3.9 103320 69
2004-03-08 09:32:30 51°11.606 2°45.712 1.3 46 3.9 103320 68
2004-03-08 09:32:35 51°11.596 2°45.682 1.1 351 3.9 103320 68
2004-03-08 09:32:40 51°11.586 2°45.652 1.1 355 3.9 103330 68
2004-03-08 09:32:45 51°11.577 2°45.62 1.3 22 3.9 103330 68
2004-03-08 09:32:50 51°11.566 2°45.591 1.1 14 3.9 103320 68
2004-03-08 09:32:55 51°11.556 2°45.56 1.1 353 3.9 103320 68
2004-03-08 09:33:00 51°11.546 2°45.53 0.9 17 3.9 103320 68
2004-03-08 09:33:05 51°11.536 2°45.5 0.9 348 3.9 103320 68
2004-03-08 09:33:09 51°11.528 2°45.475 0.7 16 3.9 103320 68
2004-03-08 09:33:15 51°11.516 2°45.439 0.6 10 3.9 103320 68
2004-03-08 09:33:19 51°11.508 2°45.414 1 31 3.9 103320 68
2004-03-08 09:33:25 51°11.496 2°45.377 1.1 31 3.9 103320 68
2004-03-08 09:33:30 51°11.487 2°45.347 0.9 20 4 103320 68
2004-03-08 09:33:35 51°11.477 2°45.316 0.8 12 4 103320 68
2004-03-08 09:33:40 51°11.468 2°45.285 0.8 23 3.9 103320 68
2004-03-08 09:33:45 51°11.457 2°45.255 0.8 7 3.9 103320 68
2004-03-08 09:33:49 51°11.451 2°45.23 0.7 354 3.9 103320 68
2004-03-08 09:33:55 51°11.439 2°45.194 0.6 16 3.9 103320 68
2004-03-08 09:34:00 51°11.429 2°45.163 0.7 13 3.9 103320 67
2004-03-08 09:34:05 51°11.419 2°45.133 1 34 3.9 103320 67
2004-03-08 09:34:09 51°11.412 2°45.108 1.2 357 3.9 103330 67
2004-03-08 09:34:15 51°11.4 2°45.071 1.2 21 3.9 103330 67
2004-03-08 09:34:19 51°11.393 2°45.047 0.9 16 3.9 103330 67
2004-03-08 09:34:25 51°11.381 2°45.01 0.9 16 3.9 103330 67
2004-03-08 09:34:29 51°11.374 2°44.985 1.2 18 3.9 103330 67
2004-03-08 09:34:35 51°11.362 2°44.949 1.1 14 3.9 103330 67
2004-03-08 09:34:40 51°11.352 2°44.918 1.1 36 3.9 103330 67
2004-03-08 09:34:45 51°11.343 2°44.887 1.2 42 3.9 103330 67
2004-03-08 09:34:49 51°11.335 2°44.863 1.5 47 3.9 103320 67
2004-03-08 09:34:55 51°11.325 2°44.826 1.2 42 3.9 103320 67
2004-03-08 09:35:00 51°11.314 2°44.796 1.4 54 3.9 103330 68
2004-03-08 09:35:05 51°11.306 2°44.765 1.4 27 3.9 103330 68
2004-03-08 09:35:09 51°11.298 2°44.74 0.9 43 3.9 103330 68
2004-03-08 09:35:15 51°11.287 2°44.703 1 40 3.9 103330 68
2004-03-08 09:35:20 51°11.277 2°44.673 0.9 40 3.9 103320 67
2004-03-08 09:35:25 51°11.267 2°44.643 0.7 358 3.9 103320 67
2004-03-08 09:35:29 51°11.259 2°44.619 0.7 14 3.9 103320 67
2004-03-08 09:35:35 51°11.247 2°44.583 0.7 340 3.9 103320 67
2004-03-08 09:35:39 51°11.239 2°44.559 1 14 3.9 103330 67
2004-03-08 09:35:45 51°11.227 2°44.522 0.8 13 3.9 103330 67
2004-03-08 09:35:49 51°11.22 2°44.498 1 347 3.9 103320 68
2004-03-08 09:35:55 51°11.208 2°44.461 1.1 29 3.9 103320 68
2004-03-08 09:35:59 51°11.201 2°44.437 1.1 354 3.9 103320 68
2004-03-08 09:36:05 51°11.19 2°44.399 1.3 61 3.9 103320 68
2004-03-08 09:36:09 51°11.183 2°44.375 0.8 33 3.9 103330 68
2004-03-08 09:36:15 51°11.173 2°44.337 1.3 60 3.9 103330 68
2004-03-08 09:36:20 51°11.164 2°44.306 1.1 42 4 103320 68
2004-03-08 09:36:25 51°11.156 2°44.274 1.5 71 4 103320 68
2004-03-08 09:36:30 51°11.147 2°44.243 1.1 28 4 103330 68
2004-03-08 09:36:35 51°11.14 2°44.211 1.5 57 4 103330 68
2004-03-08 09:36:39 51°11.133 2°44.187 0.8 45 3.9 103330 68
2004-03-08 09:36:45 51°11.124 2°44.149 1 65 3.9 103330 68
2004-03-08 09:36:50 51°11.115 2°44.118 0.9 34 3.9 103330 68
2004-03-08 09:36:55 51°11.107 2°44.086 1.7 54 3.9 103330 68
2004-03-08 09:36:59 51°11.1 2°44.061 1.5 33 3.9 103330 68
2004-03-08 09:37:05 51°11.09 2°44.024 1.6 46 3.9 103330 68
2004-03-08 09:37:10 51°11.082 2°43.992 1.4 34 3.9 103330 68
2004-03-08 09:37:15 51°11.074 2°43.961 2 55 3.9 103330 68
2004-03-08 09:37:20 51°11.065 2°43.929 1.3 41 4 103330 68
2004-03-08 09:37:25 51°11.058 2°43.898 1.5 59 4 103330 68
2004-03-08 09:37:30 51°11.049 2°43.867 1 43 3.9 103330 68
2004-03-08 09:37:35 51°11.041 2°43.836 1.2 46 3.9 103330 68
2004-03-08 09:37:40 51°11.033 2°43.805 1.2 34 3.9 103330 67
2004-03-08 09:37:45 51°11.024 2°43.773 1.4 44 3.9 103330 67
2004-03-08 09:37:50 51°11.016 2°43.742 1.2 24 3.9 103330 67
2004-03-08 09:37:55 51°11.007 2°43.711 1.2 33 3.9 103330 67
2004-03-08 09:37:59 51°11.001 2°43.685 1.1 14 3.9 103330 67
2004-03-08 09:38:05 51°10.99 2°43.649 1.3 40 3.9 103330 67
2004-03-08 09:38:09 51°10.983 2°43.624 1.3 19 3.9 103330 67
2004-03-08 09:38:15 51°10.972 2°43.587 1.2 41 3.9 103330 67
2004-03-08 09:38:19 51°10.965 2°43.562 1.3 16 3.9 103330 67
2004-03-08 09:38:25 51°10.955 2°43.525 1.7 9 3.9 103330 67
2004-03-08 09:38:30 51°10.946 2°43.494 1.8 47 3.8 103330 67
2004-03-08 09:38:35 51°10.938 2°43.463 1.3 20 3.8 103330 67
2004-03-08 09:38:40 51°10.93 2°43.432 1.4 36 3.8 103330 68
2004-03-08 09:38:45 51°10.922 2°43.401 2 37 3.8 103330 68
2004-03-08 09:38:49 51°10.915 2°43.376 1.4 42 3.8 103330 68
2004-03-08 09:38:55 51°10.905 2°43.339 1.8 39 3.8 103330 68
2004-03-08 09:38:59 51°10.899 2°43.314 1.5 28 3.8 103330 68
2004-03-08 09:39:05 51°10.889 2°43.277 1.8 34 3.8 103330 68
2004-03-08 09:39:09 51°10.882 2°43.252 1.8 42 3.8 103330 68
2004-03-08 09:39:15 51°10.872 2°43.215 1.7 29 3.8 103330 68
2004-03-08 09:39:20 51°10.863 2°43.185 1.9 55 3.8 103330 68
2004-03-08 09:39:25 51°10.856 2°43.154 1.6 26 3.8 103330 68
2004-03-08 09:39:29 51°10.849 2°43.129 1.8 49 3.8 103330 69
2004-03-08 09:39:35 51°10.839 2°43.092 1.6 52 3.8 103330 69
2004-03-08 09:39:39 51°10.833 2°43.067 1.6 57 3.9 103330 69
2004-03-08 09:39:45 51°10.823 2°43.031 1.4 41 3.9 103330 69
2004-03-08 09:39:49 51°10.817 2°43.006 1.4 37 3.9 103330 69
2004-03-08 09:39:55 51°10.807 2°42.968 1.4 29 3.9 103330 69
2004-03-08 09:39:59 51°10.8 2°42.944 1.3 35 3.8 103330 69
2004-03-08 09:40:05 51°10.79 2°42.906 0.8 42 3.8 103330 69
2004-03-08 09:40:09 51°10.783 2°42.883 1 55 3.9 103340 69
2004-03-08 09:40:15 51°10.772 2°42.846 1 38 3.9 103340 69
2004-03-08 09:40:19 51°10.765 2°42.822 1.2 48 3.8 103330 69
2004-03-08 09:40:25 51°10.754 2°42.785 1.4 33 3.8 103330 69
2004-03-08 09:40:29 51°10.748 2°42.76 1.5 33 3.8 103330 69
2004-03-08 09:40:35 51°10.738 2°42.723 1.8 21 3.8 103330 69
2004-03-08 09:40:40 51°10.73 2°42.693 1.7 35 3.8 103330 69
2004-03-08 09:40:45 51°10.722 2°42.662 1.8 30 3.8 103330 69
2004-03-08 09:40:49 51°10.715 2°42.636 1.8 35 3.8 103340 69
2004-03-08 09:40:55 51°10.705 2°42.599 1.7 34 3.8 103340 69
2004-03-08 09:40:59 51°10.699 2°42.574 1.3 42 3.8 103330 69
2004-03-08 09:41:05 51°10.689 2°42.538 1.6 60 3.8 103330 69
2004-03-08 09:41:10 51°10.681 2°42.508 1.3 37 3.8 103340 69
2004-03-08 09:41:15 51°10.672 2°42.478 1.3 41 3.8 103340 69
2004-03-08 09:41:19 51°10.665 2°42.454 1 29 3.8 103330 69
2004-03-08 09:41:25 51°10.654 2°42.417 1.1 32 3.8 103330 69
2004-03-08 09:41:29 51°10.647 2°42.393 1.2 32 3.8 103340 69
2004-03-08 09:41:35 51°10.637 2°42.356 0.9 31 3.8 103340 69
2004-03-08 09:41:40 51°10.629 2°42.326 1 33 3.8 103340 69
2004-03-08 09:41:45 51°10.62 2°42.296 1.1 35 3.8 103340 69
2004-03-08 09:41:50 51°10.612 2°42.265 1.7 19 3.8 103330 69
2004-03-08 09:41:55 51°10.603 2°42.235 1.7 53 3.8 103330 69
2004-03-08 09:42:00 51°10.596 2°42.203 1.7 36 3.8 103330 69
2004-03-08 09:42:05 51°10.587 2°42.173 2.1 75 3.8 103330 69
2004-03-08 09:42:09 51°10.58 2°42.148 1.3 69 3.8 103340 69
2004-03-08 09:42:15 51°10.57 2°42.111 1.5 84 3.8 103340 69
2004-03-08 09:42:19 51°10.564 2°42.086 1.3 84 3.8 103330 70
2004-03-08 09:42:25 51°10.554 2°42.05 1.3 73 3.8 103330 70
2004-03-08 09:42:29 51°10.547 2°42.025 1.9 45 3.8 103340 70
2004-03-08 09:42:35 51°10.537 2°41.988 1.7 35 3.8 103340 70
2004-03-08 09:42:40 51°10.529 2°41.957 1.4 53 3.8 103330 71
2004-03-08 09:42:45 51°10.521 2°41.925 1.8 40 3.8 103330 71
2004-03-08 09:42:49 51°10.516 2°41.9 1.5 28 3.9 103340 71
2004-03-08 09:42:55 51°10.506 2°41.863 2.4 37 3.9 103340 71
2004-03-08 09:42:59 51°10.5 2°41.837 2.1 18 3.9 103340 70
2004-03-08 09:43:05 51°10.491 2°41.8 2 4 3.9 103340 70
2004-03-08 09:43:10 51°10.483 2°41.769 2.4 20 3.8 103330 70
2004-03-08 09:43:15 51°10.474 2°41.739 2.3 45 3.8 103330 70
2004-03-08 09:43:20 51°10.467 2°41.707 2.7 25 3.8 103330 70
2004-03-08 09:43:25 51°10.458 2°41.677 3 33 3.8 103330 70
2004-03-08 09:43:29 51°10.451 2°41.653 2.1 39 3.8 103330 70
2004-03-08 09:43:35 51°10.442 2°41.616 2.1 38 3.8 103330 70
2004-03-08 09:43:39 51°10.435 2°41.591 2.5 50 3.8 103330 70
2004-03-08 09:43:45 51°10.426 2°41.554 1.8 41 3.8 103330 70
2004-03-08 09:43:49 51°10.42 2°41.529 2 10 3.8 103340 71
2004-03-08 09:43:55 51°10.41 2°41.492 2.6 30 3.8 103340 71
2004-03-08 09:44:00 51°10.402 2°41.461 2 12 3.8 103340 71
2004-03-08 09:44:05 51°10.394 2°41.431 2.1 50 3.8 103340 71
2004-03-08 09:44:09 51°10.387 2°41.406 2 34 3.8 103330 71
2004-03-08 09:44:15 51°10.377 2°41.369 2.1 41 3.8 103330 71
2004-03-08 09:44:20 51°10.369 2°41.339 1.7 31 3.8 103330 71
2004-03-08 09:44:25 51°10.36 2°41.309 1.9 43 3.8 103330 71
2004-03-08 09:44:29 51°10.353 2°41.285 2 45 3.8 103340 71
2004-03-08 09:44:35 51°10.344 2°41.247 1.7 31 3.8 103340 71
2004-03-08 09:44:40 51°10.335 2°41.217 2.1 50 3.8 103330 70
2004-03-08 09:44:45 51°10.327 2°41.186 1.7 35 3.8 103330 70
2004-03-08 09:44:49 51°10.32 2°41.162 2.1 57 3.8 103340 70
2004-03-08 09:44:55 51°10.311 2°41.125 1.5 13 3.8 103340 70
2004-03-08 09:44:59 51°10.304 2°41.101 1.5 33 3.7 103330 70
2004-03-08 09:45:05 51°10.293 2°41.064 1.2 12 3.7 103330 70
2004-03-08 09:45:09 51°10.286 2°41.04 1.7 40 3.7 103330 70
2004-03-08 09:45:15 51°10.276 2°41.003 1.7 27 3.7 103330 70
2004-03-08 09:45:20 51°10.268 2°40.973 1.3 3 3.7 103330 70
2004-03-08 09:45:25 51°10.26 2°40.942 0.9 32 3.7 103330 70
2004-03-08 09:45:29 51°10.253 2°40.918 1.4 26 3.8 103340 70
2004-03-08 09:45:35 51°10.243 2°40.881 1.6 20 3.8 103340 70
2004-03-08 09:45:40 51°10.234 2°40.851 1.6 20 3.7 103330 70
2004-03-08 09:45:45 51°10.226 2°40.821 1.6 31 3.7 103330 70
2004-03-08 09:45:49 51°10.219 2°40.796 1.9 22 3.7 103330 70
2004-03-08 09:45:55 51°10.21 2°40.759 1.9 31 3.7 103330 70
2004-03-08 09:45:59 51°10.204 2°40.734 1.7 18 3.7 103330 70
2004-03-08 09:46:05 51°10.194 2°40.697 2.3 42 3.7 103330 70
2004-03-08 09:46:09 51°10.188 2°40.672 2.1 27 3.7 103340 70
2004-03-08 09:46:15 51°10.178 2°40.635 1.8 14 3.7 103340 70
2004-03-08 09:46:20 51°10.17 2°40.605 2.5 35 3.7 103330 70
2004-03-08 09:46:25 51°10.161 2°40.575 2.2 38 3.7 103330 70
2004-03-08 09:46:29 51°10.155 2°40.55 2.2 37 3.7 103330 70
2004-03-08 09:46:35 51°10.145 2°40.513 1.9 34 3.7 103330 70
2004-03-08 09:46:40 51°10.136 2°40.483 2.6 43 3.7 103330 71
2004-03-08 09:46:45 51°10.128 2°40.453 2.5 34 3.7 103330 71
2004-03-08 09:46:49 51°10.121 2°40.429 2.5 43 3.7 103330 70
2004-03-08 09:46:55 51°10.111 2°40.392 2.4 35 3.7 103330 70
2004-03-08 09:46:59 51°10.104 2°40.368 2.2 48 3.7 103330 70
2004-03-08 09:47:05 51°10.094 2°40.332 1.9 38 3.7 103330 70
2004-03-08 09:47:09 51°10.087 2°40.308 1.8 32 3.7 103330 70
2004-03-08 09:47:15 51°10.077 2°40.272 1.9 43 3.7 103330 70
2004-03-08 09:47:20 51°10.069 2°40.241 1.9 46 3.7 103330 70
2004-03-08 09:47:25 51°10.06 2°40.211 2.2 49 3.7 103330 70
2004-03-08 09:47:30 51°10.052 2°40.18 1.9 43 3.7 103330 70
2004-03-08 09:47:35 51°10.045 2°40.149 2.3 52 3.7 103330 70
2004-03-08 09:47:39 51°10.037 2°40.125 2.4 54 3.7 103330 70
2004-03-08 09:47:45 51°10.029 2°40.088 1.8 33 3.7 103330 70
2004-03-08 09:47:49 51°10.021 2°40.064 2 52 3.6 103330 69
2004-03-08 09:47:55 51°10.012 2°40.027 1.5 36 3.6 103330 69
2004-03-08 09:47:59 51°10.005 2°40.003 1.6 48 3.6 103340 69
2004-03-08 09:48:05 51°9.995 2°39.966 1.5 49 3.6 103340 69
2004-03-08 09:48:09 51°9.989 2°39.941 1.4 49 3.6 103330 69
2004-03-08 09:48:15 51°9.979 2°39.904 1.1 34 3.6 103330 69
2004-03-08 09:48:20 51°9.972 2°39.873 1.2 52 3.6 103330 69
2004-03-08 09:48:25 51°9.964 2°39.843 0.9 50 3.6 103330 69
2004-03-08 09:48:29 51°9.958 2°39.818 0.8 48 3.6 103340 69
2004-03-08 09:48:35 51°9.948 2°39.781 0.6 55 3.6 103340 69
2004-03-08 09:48:40 51°9.939 2°39.751 0.8 22 3.6 103330 69
2004-03-08 09:48:45 51°9.932 2°39.72 1.1 54 3.6 103330 69
2004-03-08 09:48:49 51°9.925 2°39.696 0.5 31 3.6 103330 69
2004-03-08 09:48:55 51°9.916 2°39.659 0.5 11 3.6 103330 69
2004-03-08 09:49:00 51°9.908 2°39.628 1.3 354 3.6 103330 69
2004-03-08 09:49:05 51°9.9 2°39.597 1.7 18 3.6 103330 69
2004-03-08 09:49:09 51°9.893 2°39.573 2.3 360 3.6 103330 70
2004-03-08 09:49:15 51°9.883 2°39.537 2.5 12 3.6 103330 70
2004-03-08 09:49:19 51°9.877 2°39.512 2.6 340 3.6 103330 70
2004-03-08 09:49:25 51°9.867 2°39.475 2.3 3 3.6 103330 70
2004-03-08 09:49:29 51°9.861 2°39.451 2.7 5 3.6 103330 70
2004-03-08 09:49:35 51°9.851 2°39.414 2.1 358 3.6 103330 70
2004-03-08 09:49:39 51°9.844 2°39.39 2.5 27 3.6 103330 70
2004-03-08 09:49:45 51°9.835 2°39.353 2.2 351 3.6 103330 70
2004-03-08 09:49:49 51°9.828 2°39.328 2.4 32 3.7 103330 70
2004-03-08 09:49:55 51°9.819 2°39.292 2.2 30 3.7 103330 70
2004-03-08 09:50:00 51°9.811 2°39.261 2.5 20 3.7 103330 71
2004-03-08 09:50:05 51°9.804 2°39.23 2.3 19 3.7 103330 71
2004-03-08 09:50:09 51°9.797 2°39.205 2.1 15 3.7 103330 71
2004-03-08 09:50:15 51°9.788 2°39.168 2.6 23 3.7 103330 71
2004-03-08 09:50:20 51°9.78 2°39.137 2.3 13 3.7 103330 71
2004-03-08 09:50:25 51°9.772 2°39.107 1.9 19 3.7 103330 71
2004-03-08 09:50:29 51°9.766 2°39.082 2.1 23 3.8 103330 71
2004-03-08 09:50:35 51°9.756 2°39.046 2.1 17 3.8 103330 71
2004-03-08 09:50:40 51°9.748 2°39.015 2.1 25 3.8 103330 71
2004-03-08 09:50:45 51°9.739 2°38.985 1.9 12 3.8 103330 71
2004-03-08 09:50:49 51°9.733 2°38.96 1.8 12 3.8 103340 71
2004-03-08 09:50:55 51°9.723 2°38.924 1.9 31 3.8 103340 71
2004-03-08 09:51:00 51°9.715 2°38.893 1.9 25 3.8 103340 70
2004-03-08 09:51:05 51°9.707 2°38.863 2.4 41 3.8 103340 70
2004-03-08 09:51:10 51°9.699 2°38.832 1.9 11 3.8 103330 70
2004-03-08 09:51:15 51°9.691 2°38.801 2.3 34 3.8 103330 70
2004-03-08 09:51:20 51°9.683 2°38.771 1.5 21 3.7 103340 70
2004-03-08 09:51:25 51°9.675 2°38.74 1.8 16 3.7 103340 70
2004-03-08 09:51:30 51°9.667 2°38.71 2 37 3.7 103330 70
2004-03-08 09:51:35 51°9.659 2°38.679 1.7 11 3.7 103330 70
2004-03-08 09:51:40 51°9.652 2°38.648 1.8 20 3.7 103330 70
2004-03-08 09:51:45 51°9.643 2°38.618 1.8 23 3.7 103330 70
2004-03-08 09:51:50 51°9.636 2°38.587 1.6 10 3.8 103340 70
2004-03-08 09:51:55 51°9.626 2°38.557 1.8 25 3.8 103340 70
2004-03-08 09:52:00 51°9.619 2°38.526 1.7 357 3.7 103330 70
2004-03-08 09:52:05 51°9.61 2°38.498 1.2 25 3.7 103330 70
2004-03-08 09:52:09 51°9.605 2°38.475 0.9 15 3.7 103340 70
2004-03-08 09:52:15 51°9.594 2°38.445 0.8 12 3.7 103340 70
2004-03-08 09:52:19 51°9.588 2°38.426 1.4 280 3.7 103340 70
2004-03-08 09:52:25 51°9.577 2°38.401 1.5 280 3.7 103340 70
2004-03-08 09:52:30 51°9.568 2°38.383 1.7 253 3.8 103330 70
2004-03-08 09:52:35 51°9.559 2°38.367 2.2 256 3.8 103330 70
2004-03-08 09:52:39 51°9.552 2°38.356 2 257 3.8 103330 70
2004-03-08 09:52:45 51°9.541 2°38.342 2.9 257 3.8 103330 70
2004-03-08 09:52:49 51°9.534 2°38.334 3.1 258 3.8 103330 70
2004-03-08 09:52:55 51°9.524 2°38.322 2.9 257 3.8 103330 70
2004-03-08 09:53:00 51°9.516 2°38.314 3 255 3.8 103330 70
2004-03-08 09:53:05 51°9.508 2°38.306 2.7 255 3.8 103330 70
2004-03-08 09:53:10 51°9.501 2°38.3 3.1 254 3.7 103330 69
2004-03-08 09:53:15 51°9.495 2°38.295 5 258 3.7 103330 69
2004-03-08 09:53:20 51°9.489 2°38.291 6.1 277 3.7 103330 70
2004-03-08 09:53:25 51°9.485 2°38.288 7 270 3.7 103330 70
2004-03-08 09:53:30 51°9.48 2°38.285 6.2 265 3.7 103330 70
2004-03-08 09:53:35 51°9.477 2°38.283 6.7 268 3.7 103330 70
2004-03-08 09:53:40 51°9.474 2°38.281 6.4 273 3.7 103330 70
2004-03-08 09:53:45 51°9.472 2°38.279 7 268 3.7 103330 70
2004-03-08 09:53:50 51°9.471 2°38.276 6.1 272 3.8 103320 71
2004-03-08 09:53:55 51°9.47 2°38.274 7.1 271 3.8 103320 71
2004-03-08 09:54:00 51°9.469 2°38.271 7.4 269 3.8 103330 71
2004-03-08 09:54:05 51°9.469 2°38.268 6.8 265 3.8 103330 71
2004-03-08 09:54:09 51°9.468 2°38.266 6.7 268 3.8 103320 71
2004-03-08 09:54:15 51°9.467 2°38.263 6.8 264 3.8 103320 71
2004-03-08 09:54:20 51°9.466 2°38.26 6.6 261 3.8 103330 71
2004-03-08 09:54:25 51°9.466 2°38.257 6.3 263 3.8 103330 71
2004-03-08 09:54:30 51°9.465 2°38.254 6.8 263 3.8 103330 71
2004-03-08 09:54:35 51°9.464 2°38.251 6.4 263 3.8 103330 71
2004-03-08 09:54:40 51°9.463 2°38.248 5.8 267 3.8 103330 71
2004-03-08 09:54:45 51°9.462 2°38.246 5.9 263 3.8 103330 71
2004-03-08 09:54:49 51°9.461 2°38.243 6.2 261 3.8 103330 71
2004-03-08 09:54:55 51°9.46 2°38.24 5.3 261 3.8 103330 71
2004-03-08 09:54:59 51°9.459 2°38.238 6.2 261 3.8 103320 71
2004-03-08 09:55:05 51°9.458 2°38.234 6.4 261 3.8 103320 71
2004-03-08 09:55:09 51°9.458 2°38.232 5.8 265 3.8 103330 71
2004-03-08 09:55:15 51°9.456 2°38.229 6.9 261 3.8 103330 71
2004-03-08 09:55:20 51°9.455 2°38.226 6.6 266 3.8 103330 71
2004-03-08 09:55:25 51°9.454 2°38.223 6.3 275 3.8 103330 71
2004-03-08 09:55:30 51°9.453 2°38.221 5.8 277 3.8 103330 71
2004-03-08 09:55:35 51°9.452 2°38.218 5 271 3.8 103330 71
2004-03-08 09:55:39 51°9.451 2°38.216 5.4 276 3.8 103330 71
2004-03-08 09:55:45 51°9.45 2°38.213 6.1 275 3.8 103330 71
2004-03-08 09:55:49 51°9.449 2°38.211 5.6 269 3.8 103330 71
2004-03-08 09:55:55 51°9.447 2°38.208 5.6 281 3.8 103330 71
2004-03-08 09:56:00 51°9.446 2°38.205 5.9 285 3.8 103330 71
2004-03-08 09:56:05 51°9.445 2°38.202 7.1 275 3.8 103330 71
2004-03-08 09:56:11 51°9.444 2°38.199 7 276 3.9 103330 72
2004-03-08 09:56:15 51°9.443 2°38.197 7.1 274 3.9 103330 72
2004-03-08 09:56:20 51°9.441 2°38.195 6.3 275 3.9 103330 72
2004-03-08 09:56:25 51°9.44 2°38.192 6.4 278 3.9 103330 72
2004-03-08 09:56:30 51°9.439 2°38.19 6.6 278 3.9 103330 72
2004-03-08 09:56:35 51°9.438 2°38.187 6.9 274 3.9 103330 72
2004-03-08 09:56:40 51°9.436 2°38.184 6.4 273 3.9 103330 71
2004-03-08 09:56:45 51°9.435 2°38.182 6.1 274 3.9 103330 71
2004-03-08 09:56:50 51°9.433 2°38.18 6 282 3.9 103320 71
2004-03-08 09:56:55 51°9.432 2°38.177 6.1 281 3.9 103320 71
2004-03-08 09:57:00 51°9.43 2°38.175 6 281 3.9 103320 71
2004-03-08 09:57:05 51°9.429 2°38.172 6.2 281 3.9 103320 71
2004-03-08 09:57:10 51°9.428 2°38.17 7.2 279 3.8 103330 71
2004-03-08 09:57:15 51°9.426 2°38.168 6.6 268 3.8 103330 71
2004-03-08 09:57:20 51°9.425 2°38.166 7.2 279 3.9 103330 71
2004-03-08 09:57:25 51°9.423 2°38.163 6.8 278 3.9 103330 71
2004-03-08 09:57:29 51°9.422 2°38.162 6.1 270 3.9 103330 71
2004-03-08 09:57:35 51°9.42 2°38.159 6.9 264 3.9 103330 71
2004-03-08 09:57:39 51°9.419 2°38.157 5.6 267 3.9 103330 72
2004-03-08 09:57:45 51°9.417 2°38.154 6.3 262 3.9 103330 72
2004-03-08 09:57:50 51°9.416 2°38.152 6.7 273 3.9 103330 72
2004-03-08 09:57:55 51°9.414 2°38.15 6.6 268 3.9 103330 72
2004-03-08 09:58:00 51°9.412 2°38.148 6.6 271 3.9 103330 72
2004-03-08 09:58:05 51°9.411 2°38.147 6.2 275 3.9 103330 72
2004-03-08 09:58:09 51°9.41 2°38.145 5.6 270 3.9 103330 72
2004-03-08 09:58:15 51°9.408 2°38.143 6 279 3.9 103330 72
2004-03-08 09:58:20 51°9.406 2°38.141 6.8 269 3.9 103330 72
2004-03-08 09:58:25 51°9.405 2°38.139 5.8 284 3.9 103330 72
2004-03-08 09:58:30 51°9.403 2°38.137 6.1 278 3.9 103330 71
2004-03-08 09:58:35 51°9.401 2°38.135 6.7 279 3.9 103330 71
2004-03-08 09:58:40 51°9.4 2°38.133 6.9 279 3.9 103330 71
2004-03-08 09:58:45 51°9.398 2°38.131 6.6 282 3.9 103330 71
2004-03-08 09:58:50 51°9.396 2°38.129 6.4 278 3.9 103330 71
2004-03-08 09:58:55 51°9.394 2°38.127 6.1 279 3.9 103330 71
2004-03-08 09:59:00 51°9.393 2°38.126 5.9 285 3.8 103330 71
2004-03-08 09:59:05 51°9.391 2°38.124 6.7 286 3.8 103330 71
2004-03-08 09:59:10 51°9.39 2°38.122 6.5 290 3.8 103330 71
2004-03-08 09:59:15 51°9.388 2°38.12 5.5 280 3.8 103330 71
2004-03-08 09:59:20 51°9.386 2°38.118 6 284 3.8 103330 70
2004-03-08 09:59:25 51°9.385 2°38.117 6.2 283 3.8 103330 70
2004-03-08 09:59:30 51°9.383 2°38.115 7.3 275 3.8 103330 70
2004-03-08 09:59:35 51°9.381 2°38.113 6.9 276 3.8 103330 70
2004-03-08 09:59:40 51°9.38 2°38.112 6.4 277 3.8 103330 70
2004-03-08 09:59:45 51°9.378 2°38.11 6.8 280 3.8 103330 70
2004-03-08 09:59:49 51°9.376 2°38.109 6.7 282 3.8 103330 70
2004-03-08 09:59:55 51°9.372 2°38.109 5.9 282 3.8 103330 70
2004-03-08 10:00:00 51°9.368 2°38.109 6.6 280 3.8 103320 70
2004-03-08 10:00:05 51°9.363 2°38.109 5.8 290 3.8 103320 70
2004-03-08 10:00:10 51°9.358 2°38.11 5.7 281 3.8 103330 70
2004-03-08 10:00:15 51°9.352 2°38.11 5.7 279 3.8 103330 70
2004-03-08 10:00:20 51°9.345 2°38.109 6.2 285 3.8 103330 70
2004-03-08 10:00:25 51°9.338 2°38.108 6.4 274 3.8 103330 70
2004-03-08 10:00:30 51°9.33 2°38.106 6.9 270 3.8 103330 70
2004-03-08 10:00:35 51°9.321 2°38.103 6.3   3.8 103330 70
2004-03-08 10:00:40 51°9.312 2°38.098 4.5 259 3.8 103330 71
2004-03-08 10:00:45 51°9.304 2°38.092 2.5 257 3.8 103330 71
2004-03-08 10:00:49 51°9.297 2°38.085 2.9 256 3.8 103330 71
2004-03-08 10:00:55 51°9.286 2°38.074 2.8 250 3.8 103330 71
2004-03-08 10:01:00 51°9.277 2°38.063 3.5 235 3.8 103330 70
2004-03-08 10:01:05 51°9.27 2°38.05 3 235 3.8 103330 70
2004-03-08 10:01:10 51°9.262 2°38.037 2.1 213 3.8 103340 70
2004-03-08 10:01:15 51°9.255 2°38.021 1.6 208 3.8 103340 70
2004-03-08 10:01:20 51°9.249 2°38.005 1.1 152 3.8 103340 70
2004-03-08 10:01:25 51°9.244 2°37.988 1.3 92 3.8 103340 70
2004-03-08 10:01:30 51°9.24 2°37.97 2.2 69 3.8 103340 70
2004-03-08 10:01:35 51°9.237 2°37.951 2.3 104 3.8 103340 70
2004-03-08 10:01:40 51°9.235 2°37.932 2.5 101 3.8 103340 70
2004-03-08 10:01:45 51°9.235 2°37.913 2.4 112 3.8 103340 70
2004-03-08 10:01:49 51°9.235 2°37.897 3.2 93 3.8 103340 71
2004-03-08 10:01:55 51°9.237 2°37.875 3.6 96 3.8 103340 71
2004-03-08 10:02:00 51°9.24 2°37.856 4.2 91 3.8 103340 71
2004-03-08 10:02:05 51°9.243 2°37.838 4.1 81 3.8 103340 71
2004-03-08 10:02:09 51°9.247 2°37.824 4.7 79 3.8 103340 71
2004-03-08 10:02:15 51°9.254 2°37.805 5.6 79 3.8 103340 71
2004-03-08 10:02:20 51°9.261 2°37.79 5.9 72 3.8 103340 70
2004-03-08 10:02:25 51°9.268 2°37.776 7 66 3.8 103340 70
2004-03-08 10:02:30 51°9.276 2°37.764 7 54 3.8 103330 70
2004-03-08 10:02:35 51°9.285 2°37.754 7.8 54 3.8 103330 70
2004-03-08 10:02:40 51°9.294 2°37.745 7.9 54 3.8 103340 71
2004-03-08 10:02:45 51°9.304 2°37.738 8.6 53 3.8 103340 71
2004-03-08 10:02:49 51°9.312 2°37.733 8 50 3.8 103340 70
2004-03-08 10:02:55 51°9.324 2°37.728 7.7 43 3.8 103340 70
2004-03-08 10:03:00 51°9.335 2°37.725 8.9 38 3.7 103330 70
2004-03-08 10:03:05 51°9.345 2°37.723 8.9 39 3.7 103330 70
2004-03-08 10:03:09 51°9.354 2°37.722 9.5 37 3.7 103330 70
2004-03-08 10:03:15 51°9.366 2°37.721 9.6 38 3.7 103330 70
2004-03-08 10:03:19 51°9.375 2°37.72 9.3 37 3.7 103320 71
2004-03-08 10:03:25 51°9.388 2°37.719 9.3 41 3.7 103320 71
2004-03-08 10:03:30 51°9.399 2°37.718 9.2 40 3.7 103320 71
2004-03-08 10:03:35 51°9.411 2°37.718 9.8 39 3.7 103320 71
2004-03-08 10:03:40 51°9.423 2°37.718 9.6 33 3.7 103320 71
2004-03-08 10:03:45 51°9.436 2°37.72 10.5 36 3.7 103320 71
2004-03-08 10:03:49 51°9.446 2°37.722 10.4 42 3.6 103320 71
2004-03-08 10:03:55 51°9.461 2°37.725 10.4 35 3.6 103320 71
2004-03-08 10:04:00 51°9.474 2°37.729 10.6 37 3.6 103310 71
2004-03-08 10:04:05 51°9.488 2°37.732 10.2 35 3.6 103310 71
2004-03-08 10:04:09 51°9.499 2°37.735 9.7 37 3.6 103310 71
2004-03-08 10:04:15 51°9.515 2°37.737 10 34 3.6 103310 71
2004-03-08 10:04:20 51°9.53 2°37.739 10.7 40 3.5 103320 71
2004-03-08 10:04:25 51°9.544 2°37.74 10.4 40 3.5 103320 71
2004-03-08 10:04:29 51°9.555 2°37.741 10.3 38 3.5 103310 71
2004-03-08 10:04:35 51°9.573 2°37.742 9.9 41 3.5 103310 71
2004-03-08 10:04:39 51°9.584 2°37.742 10 40 3.5 103320 72
2004-03-08 10:04:45 51°9.602 2°37.741 9.8 41 3.5 103320 72
2004-03-08 10:04:50 51°9.616 2°37.74 9.7 41 3.5 103330 71
2004-03-08 10:04:55 51°9.631 2°37.74 9.5 43 3.5 103330 71
2004-03-08 10:05:00 51°9.646 2°37.739 9.3 36 3.5 103310 71
2004-03-08 10:05:05 51°9.661 2°37.738 9.4 39 3.5 103310 71
2004-03-08 10:05:10 51°9.675 2°37.736 8.5 39 3.4 103310 71
2004-03-08 10:05:15 51°9.688 2°37.735 9 44 3.4 103310 71
2004-03-08 10:05:20 51°9.7 2°37.732 8.6 46 3.4 103310 71
2004-03-08 10:05:25 51°9.712 2°37.729 8.4 53 3.4 103310 71
2004-03-08 10:05:29 51°9.72 2°37.726 7.5 62 3.4 103320 72
2004-03-08 10:05:35 51°9.732 2°37.721 7.3 59 3.4 103320 72
2004-03-08 10:05:39 51°9.74 2°37.717 6.9 52 3.4 103320 72
2004-03-08 10:05:45 51°9.75 2°37.71 7.5 65 3.4 103320 72
2004-03-08 10:05:49 51°9.757 2°37.705 7.2 62 3.4 103330 72
2004-03-08 10:05:55 51°9.765 2°37.698 6.7 65 3.4 103330 72
2004-03-08 10:06:00 51°9.772 2°37.691 5.9 74 3.4 103330 73
2004-03-08 10:06:05 51°9.779 2°37.684 5.9 74 3.4 103330 73
2004-03-08 10:06:09 51°9.783 2°37.678 6.5 81 3.4 103330 73
2004-03-08 10:06:15 51°9.79 2°37.669 6.9 85 3.4 103330 73
2004-03-08 10:06:19 51°9.794 2°37.663 6.3 96 3.4 103340 72
2004-03-08 10:06:25 51°9.799 2°37.654 6.2 98 3.4 103340 72
2004-03-08 10:06:29 51°9.802 2°37.647 6.1 89 3.4 103340 72
2004-03-08 10:06:35 51°9.807 2°37.638 6.2 91 3.4 103340 72
2004-03-08 10:06:40 51°9.81 2°37.63 6 96 3.4 103340 72
2004-03-08 10:06:45 51°9.813 2°37.623 5.5 100 3.4 103340 72
2004-03-08 10:06:49 51°9.816 2°37.617 5.5 102 3.4 103340 72
2004-03-08 10:06:55 51°9.819 2°37.608 5.3 94 3.4 103340 72
2004-03-08 10:07:00 51°9.822 2°37.6 6.1 96 3.4 103340 72
2004-03-08 10:07:05 51°9.825 2°37.592 6.1 92 3.4 103340 72
2004-03-08 10:07:10 51°9.828 2°37.585 6.4 90 3.4 103340 72
2004-03-08 10:07:15 51°9.832 2°37.578 6.5 86 3.4 103340 72
2004-03-08 10:07:20 51°9.835 2°37.572 6.2 84 3.4 103340 72
2004-03-08 10:07:25 51°9.839 2°37.566 5.5 80 3.4 103340 72
2004-03-08 10:07:29 51°9.843 2°37.562 5.7 70 3.4 103340 72
2004-03-08 10:07:35 51°9.847 2°37.556 6.5 65 3.4 103340 72
2004-03-08 10:07:40 51°9.852 2°37.553 6.8 60 3.5 103340 72
2004-03-08 10:07:45 51°9.856 2°37.55 6.7 55 3.5 103340 72
2004-03-08 10:07:49 51°9.859 2°37.548 6.6 51 3.4 103340 72
2004-03-08 10:07:55 51°9.864 2°37.546 6.9 46 3.4 103340 72
2004-03-08 10:08:00 51°9.868 2°37.545 7 39 3.4 103340 72
2004-03-08 10:08:05 51°9.872 2°37.545 7.1 36 3.4 103340 72
2004-03-08 10:08:10 51°9.876 2°37.545 7.3 30 3.4 103340 72
2004-03-08 10:08:15 51°9.879 2°37.546 7 27 3.4 103340 72
2004-03-08 10:08:20 51°9.882 2°37.548 7.2 21 3.4 103320 72
2004-03-08 10:08:25 51°9.885 2°37.55 7.1 18 3.4 103320 72
2004-03-08 10:08:30 51°9.887 2°37.553 6.9 12 3.4 103330 72
2004-03-08 10:08:35 51°9.89 2°37.556 7.1 9 3.4 103330 72
2004-03-08 10:08:39 51°9.891 2°37.559 7.1 5 3.4 103340 72
2004-03-08 10:08:45 51°9.892 2°37.564 6.8 2 3.4 103340 72
2004-03-08 10:08:49 51°9.893 2°37.567 7 355 3.4 103330 72
2004-03-08 10:08:55 51°9.894 2°37.572 7.1 349 3.4 103330 72
2004-03-08 10:09:00 51°9.894 2°37.577 6.8 346 3.4 103340 72
2004-03-08 10:09:05 51°9.893 2°37.582 7 347 3.4 103340 72
2004-03-08 10:09:09 51°9.893 2°37.586 6.9 345 3.4 103340 72
2004-03-08 10:09:15 51°9.892 2°37.593 6.7 345 3.4 103340 72
2004-03-08 10:09:20 51°9.891 2°37.598 6.4 341 3.5 103330 72
2004-03-08 10:09:25 51°9.889 2°37.604 7.4 339 3.5 103330 72
2004-03-08 10:09:29 51°9.888 2°37.609 6.9 341 3.5 103330 72
2004-03-08 10:09:35 51°9.887 2°37.617 7 339 3.5 103330 72
2004-03-08 10:09:40 51°9.885 2°37.623 6.6 336 3.5 103330 72
2004-03-08 10:09:45 51°9.884 2°37.63 7.4 346 3.5 103330 72
2004-03-08 10:09:49 51°9.883 2°37.636 7.7 341 3.5 103320 72
2004-03-08 10:09:55 51°9.881 2°37.644 7 340 3.5 103320 72
2004-03-08 10:10:00 51°9.879 2°37.652 7.1 345 3.6 103330 72
2004-03-08 10:10:05 51°9.878 2°37.659 7.2 344 3.6 103330 72
2004-03-08 10:10:10 51°9.876 2°37.666 7.9 341 3.6 103320 72
2004-03-08 10:10:15 51°9.874 2°37.674 8.1 340 3.6 103320 72
2004-03-08 10:10:20 51°9.872 2°37.681 7.3 340 3.6 103330 72
2004-03-08 10:10:25 51°9.871 2°37.689 8.1 339 3.6 103330 72
2004-03-08 10:10:30 51°9.869 2°37.698 7.3 348 3.6 103330 72
2004-03-08 10:10:35 51°9.868 2°37.706 7.6 344 3.6 103330 72
2004-03-08 10:10:40 51°9.867 2°37.714 7.2 344 3.6 103320 71
2004-03-08 10:10:45 51°9.866 2°37.722 7.1 344 3.6 103320 71
2004-03-08 10:10:49 51°9.865 2°37.728 7.2 341 3.7 103320 71
2004-03-08 10:10:55 51°9.863 2°37.737 8.2 338 3.7 103320 71
2004-03-08 10:11:00 51°9.861 2°37.745 7 344 3.7 103330 72
2004-03-08 10:11:05 51°9.86 2°37.751 6.8 339 3.7 103330 72
2004-03-08 10:11:09 51°9.859 2°37.757 6.6 337 3.7 103320 71
2004-03-08 10:11:15 51°9.857 2°37.763 6.2 336 3.7 103320 71
2004-03-08 10:11:20 51°9.855 2°37.767 5.8 335 3.7 103310 71
2004-03-08 10:11:25 51°9.854 2°37.77 6.6 339 3.7 103310 71
2004-03-08 10:11:29 51°9.853 2°37.772 5.5 332 3.7 103330 71
2004-03-08 10:11:35 51°9.851 2°37.774 5.7 334 3.7 103330 71
2004-03-08 10:11:40 51°9.85 2°37.774 6.4 333 3.7 103330 71
2004-03-08 10:11:45 51°9.849 2°37.773 6.7 327 3.7 103330 71
2004-03-08 10:11:50 51°9.847 2°37.773 6.2 322 3.8 103330 71
2004-03-08 10:11:55 51°9.846 2°37.772 6.2 322 3.8 103330 71
2004-03-08 10:12:00 51°9.845 2°37.771 5.8 320 3.8 103330 72
2004-03-08 10:12:05 51°9.843 2°37.77 5.2 317 3.8 103330 72
2004-03-08 10:12:09 51°9.842 2°37.77 6.1 318 3.8 103330 71
2004-03-08 10:12:15 51°9.841 2°37.769 5.3 319 3.8 103330 71
2004-03-08 10:12:20 51°9.839 2°37.768 5.7 320 3.8 103330 71
2004-03-08 10:12:25 51°9.838 2°37.767 5.5 323 3.8 103330 71
2004-03-08 10:12:31 51°9.836 2°37.766 5.5 316 3.8 103330 71
2004-03-08 10:12:35 51°9.835 2°37.766 5.5 315 3.8 103330 71
2004-03-08 10:12:40 51°9.833 2°37.765 6.1 227 3.8 103330 71
2004-03-08 10:12:45 51°9.831 2°37.764 5.6 41 3.8 103330 71
2004-03-08 10:12:49 51°9.83 2°37.763 6 315 3.8 103330 71
2004-03-08 10:12:55 51°9.828 2°37.762 5.7 227 3.8 103330 71
2004-03-08 10:12:59 51°9.827 2°37.761 5.2 309 3.8 103330 71
2004-03-08 10:13:05 51°9.825 2°37.76 5.8 310 3.8 103330 71
2004-03-08 10:13:09 51°9.824 2°37.759 5.3 311 3.8 103330 70
2004-03-08 10:13:15 51°9.822 2°37.758 5.4 312 3.8 103330 70
2004-03-08 10:13:20 51°9.82 2°37.757 4.7 311 3.8 103330 70
2004-03-08 10:13:25 51°9.819 2°37.756 5.4 314 3.8 103330 70
2004-03-08 10:13:29 51°9.817 2°37.755 5.7 315 3.8 103330 70
2004-03-08 10:13:35 51°9.815 2°37.754 6.8 311 3.8 103330 70
2004-03-08 10:13:40 51°9.814 2°37.752 5.7 308 3.8 103330 71
2004-03-08 10:13:45 51°9.812 2°37.751 6.5 303 3.8 103330 71
2004-03-08 10:13:49 51°9.811 2°37.75 6.8 303 3.8 103330 71
2004-03-08 10:13:55 51°9.809 2°37.749 6.8 303 3.8 103330 71
2004-03-08 10:14:00 51°9.807 2°37.748 7 306 3.9 103330 71
2004-03-08 10:14:05 51°9.805 2°37.747 6.1 306 3.9 103330 71
2004-03-08 10:14:10 51°9.804 2°37.746 6 306 3.9 103330 71
2004-03-08 10:14:15 51°9.802 2°37.744 6.1 306 3.9 103330 71
2004-03-08 10:14:20 51°9.801 2°37.743 6.1 306 3.9 103330 71
2004-03-08 10:14:25 51°9.799 2°37.742 6.2 301 3.9 103330 71
2004-03-08 10:14:29 51°9.798 2°37.741 6.2 310 3.8 103330 71
2004-03-08 10:14:35 51°9.795 2°37.74 5.3 309 3.8 103330 71
2004-03-08 10:14:40 51°9.794 2°37.739 6 312 3.8 103330 70
2004-03-08 10:14:45 51°9.792 2°37.738 5.7 310 3.8 103330 70
2004-03-08 10:14:49 51°9.791 2°37.737 5.8 311 3.9 103340 70
2004-03-08 10:14:55 51°9.789 2°37.737 5.9 308 3.9 103340 70
2004-03-08 10:15:00 51°9.787 2°37.736 6.1 314 3.9 103340 71
2004-03-08 10:15:05 51°9.785 2°37.735 5.8 312 3.9 103340 71
2004-03-08 10:15:10 51°9.784 2°37.734 5.9 310 3.9 103340 71
2004-03-08 10:15:15 51°9.782 2°37.733 5.7 304 3.9 103340 71
2004-03-08 10:15:20 51°9.78 2°37.733 5.6 307 3.9 103340 71
2004-03-08 10:15:25 51°9.779 2°37.732 5.7 310 3.9 103340 71
2004-03-08 10:15:30 51°9.777 2°37.732 5.5 310 3.9 103340 71
2004-03-08 10:15:35 51°9.775 2°37.731 6 311 3.9 103340 71
2004-03-08 10:15:39 51°9.774 2°37.731 6.7 311 3.9 103330 71
2004-03-08 10:15:45 51°9.771 2°37.73 6.5 313 3.9 103330 71
2004-03-08 10:15:51 51°9.769 2°37.73 7 311 3.9 103330 71
2004-03-08 10:15:55 51°9.768 2°37.73 6.1 312 3.9 103330 71
2004-03-08 10:16:00 51°9.766 2°37.73 5.8 312 3.9 103330 71
2004-03-08 10:16:05 51°9.765 2°37.729 6.6 310 3.9 103330 71
2004-03-08 10:16:10 51°9.763 2°37.729 6.1 313 3.9 103320 71
2004-03-08 10:16:15 51°9.761 2°37.729 6.1 311 3.9 103320 71
2004-03-08 10:16:20 51°9.759 2°37.729 6.4 313 3.9 103330 71
2004-03-08 10:16:25 51°9.757 2°37.729 6.5 315 3.9 103330 71
2004-03-08 10:16:30 51°9.756 2°37.729 6.4 228 3.9 103330 71
2004-03-08 10:16:35 51°9.754 2°37.729 6.3 227 3.9 103330 71
2004-03-08 10:16:39 51°9.752 2°37.729 5.5 43 3.9 103330 70
2004-03-08 10:16:45 51°9.75 2°37.73 6.1 227 3.9 103330 70
2004-03-08 10:16:50 51°9.748 2°37.731 5.7 312 3.9 103330 70
2004-03-08 10:16:55 51°9.746 2°37.731 6.1 228 3.9 103330 70
2004-03-08 10:16:59 51°9.745 2°37.731 5.9 43 3.9 103330 70
2004-03-08 10:17:05 51°9.743 2°37.732 6.3 227 3.9 103330 70
2004-03-08 10:17:10 51°9.741 2°37.733 5.6 43 3.9 103340 70
2004-03-08 10:17:15 51°9.739 2°37.733 6.1 228 3.9 103340 70
2004-03-08 10:17:19 51°9.737 2°37.734 6.2 229 3.9 103330 70
2004-03-08 10:17:25 51°9.735 2°37.735 5.7 313 3.9 103330 70
2004-03-08 10:17:30 51°9.733 2°37.736 5.9 227 3.9 103340 70
2004-03-08 10:17:35 51°9.731 2°37.737 6 314 3.9 103340 70
2004-03-08 10:17:40 51°9.729 2°37.737 6.8 317 3.9 103330 70
2004-03-08 10:17:45 51°9.728 2°37.739 6 316 3.9 103330 70
2004-03-08 10:17:49 51°9.726 2°37.739 6.3 321 3.9 103330 70
2004-03-08 10:17:55 51°9.724 2°37.74 5.9 321 3.9 103330 70
2004-03-08 10:18:00 51°9.722 2°37.741 5.6 317 3.9 103330 70
2004-03-08 10:18:05 51°9.72 2°37.742 5.4 317 3.9 103330 70
2004-03-08 10:18:09 51°9.719 2°37.743 5.2 318 3.9 103330 70
2004-03-08 10:18:15 51°9.717 2°37.745 5.2 317 3.9 103330 70
2004-03-08 10:18:20 51°9.715 2°37.745 5.6 316 3.9 103330 70
2004-03-08 10:18:25 51°9.713 2°37.746 5.2 325 3.9 103330 70
2004-03-08 10:18:30 51°9.711 2°37.748 6.9 329 3.9 103330 70
2004-03-08 10:18:35 51°9.709 2°37.749 6.4 332 3.9 103330 70
2004-03-08 10:18:40 51°9.707 2°37.75 5.6 320 4 103330 70
2004-03-08 10:18:45 51°9.705 2°37.751 6.2 324 4 103330 70
2004-03-08 10:18:51 51°9.703 2°37.752 6.2 327 4 103330 70
2004-03-08 10:18:55 51°9.702 2°37.753 6.9 325 4 103330 70
2004-03-08 10:18:59 51°9.7 2°37.755 7.3 326 4 103330 71
2004-03-08 10:19:05 51°9.698 2°37.756 6.4 326 4 103330 71
2004-03-08 10:19:09 51°9.697 2°37.757 6.7 332 4 103330 71
2004-03-08 10:19:15 51°9.695 2°37.758 7 334 4 103330 71
2004-03-08 10:19:19 51°9.694 2°37.76 6.8 335 4 103330 71
2004-03-08 10:19:25 51°9.692 2°37.761 6.7 334 4 103330 71
2004-03-08 10:19:29 51°9.69 2°37.762 6.6 336 4 103330 71
2004-03-08 10:19:35 51°9.689 2°37.763 6.4 334 4 103330 71
2004-03-08 10:19:39 51°9.687 2°37.764 6.9 335 4 103330 70
2004-03-08 10:19:45 51°9.686 2°37.766 6.5 334 4 103330 70
2004-03-08 10:19:49 51°9.684 2°37.767 6.2 336 4 103340 70
2004-03-08 10:19:55 51°9.683 2°37.768 6.4 335 4 103340 70
2004-03-08 10:19:59 51°9.682 2°37.769 5.6 333 4 103330 70
2004-03-08 10:20:05 51°9.68 2°37.77 6 335 4 103330 70
2004-03-08 10:20:09 51°9.679 2°37.771 6 335 4 103330 70
2004-03-08 10:20:15 51°9.678 2°37.773 6.1 342 4 103330 70
2004-03-08 10:20:20 51°9.676 2°37.774 6 344 4 103330 70
2004-03-08 10:20:25 51°9.675 2°37.775 6.2 336 4 103330 70
2004-03-08 10:20:29 51°9.674 2°37.776 6.2 345 4 103330 70
2004-03-08 10:20:35 51°9.673 2°37.777 5.9 344 4 103330 70
2004-03-08 10:20:40 51°9.672 2°37.778 6.8 347 4 103330 69
2004-03-08 10:20:45 51°9.671 2°37.779 6.7 346 4 103330 69
2004-03-08 10:20:49 51°9.67 2°37.78 6.6 346 4 103330 69
2004-03-08 10:20:55 51°9.669 2°37.781 6.6 347 4 103330 69
2004-03-08 10:21:00 51°9.668 2°37.782 6 347 4 103340 70
2004-03-08 10:21:05 51°9.667 2°37.783 5.4 348 4 103340 70
2004-03-08 10:21:09 51°9.667 2°37.784 5.6 355 4 103330 70
2004-03-08 10:21:15 51°9.666 2°37.785 6.1 354 4 103330 70
2004-03-08 10:21:20 51°9.665 2°37.786 5.8 353 4 103330 69
2004-03-08 10:21:25 51°9.664 2°37.787 5.7 350 4 103330 69
2004-03-08 10:21:29 51°9.664 2°37.788 5.9 351 4 103330 69
2004-03-08 10:21:35 51°9.663 2°37.789 6 351 4 103330 69
2004-03-08 10:21:40 51°9.663 2°37.79 5.6 357 4 103340 69
2004-03-08 10:21:45 51°9.662 2°37.791 5.2   4 103340 69
2004-03-08 10:21:49 51°9.662 2°37.791 6 355 4 103340 69
2004-03-08 10:21:55 51°9.661 2°37.792 5.8 358 4 103340 69
2004-03-08 10:22:00 51°9.66 2°37.793 5.9 357 4 103320 69
2004-03-08 10:22:05 51°9.66 2°37.794 5.9 354 4 103320 69
2004-03-08 10:22:11 51°9.66 2°37.795 5.8 357 4 103340 69
2004-03-08 10:22:15 51°9.66 2°37.796 5.8 357 4 103340 69
2004-03-08 10:22:20 51°9.659 2°37.797 5.8 7 3.9 103340 69
2004-03-08 10:22:25 51°9.659 2°37.798 5.5 10 3.9 103340 69
2004-03-08 10:22:29 51°9.659 2°37.799 5.1 7 3.9 103330 69
2004-03-08 10:22:35 51°9.659 2°37.8 5.8 10 3.9 103330 69
2004-03-08 10:22:40 51°9.659 2°37.801 5.7 15 3.9 103330 69
2004-03-08 10:22:45 51°9.66 2°37.802 6 16 3.9 103330 69
2004-03-08 10:22:50 51°9.66 2°37.802 5.9 18 3.9 103330 69
2004-03-08 10:22:55 51°9.66 2°37.803 6 21 3.9 103330 69
2004-03-08 10:23:00 51°9.661 2°37.804 6.3 22 4 103340 69
2004-03-08 10:23:05 51°9.661 2°37.805 6 18 4 103340 69
2004-03-08 10:23:09 51°9.662 2°37.806 7 20 4 103340 69
2004-03-08 10:23:15 51°9.662 2°37.806 6.2 23 4 103340 69
2004-03-08 10:23:20 51°9.663 2°37.807 6.2 22 3.9 103330 69
2004-03-08 10:23:25 51°9.663 2°37.807 6 26 3.9 103330 69
2004-03-08 10:23:29 51°9.664 2°37.808 6.3 25 3.9 103330 69
2004-03-08 10:23:35 51°9.665 2°37.808 6 28 3.9 103330 69
2004-03-08 10:23:40 51°9.666 2°37.808 5.7 30 3.9 103340 69
2004-03-08 10:23:45 51°9.666 2°37.809 5.1 34 3.9 103340 69
2004-03-08 10:23:49 51°9.667 2°37.809 5.2 30 3.9 103330 69
2004-03-08 10:23:55 51°9.668 2°37.809 5.4 32 3.9 103330 69
2004-03-08 10:24:00 51°9.669 2°37.808 6.1 38 3.9 103340 69
2004-03-08 10:24:05 51°9.67 2°37.808 5.9 36 3.9 103340 69
2004-03-08 10:24:09 51°9.671 2°37.808 6.1 41 3.9 103330 69
2004-03-08 10:24:15 51°9.673 2°37.807 5.8 43 3.9 103330 69
2004-03-08 10:24:19 51°9.674 2°37.806 6.3 57 3.8 103330 70
2004-03-08 10:24:25 51°9.675 2°37.805 6.3 50 3.8 103330 70